Location: Durbanville Hills
(33.8501°S, 18.6382°E)
Time: 19:14:43
(UTC+00:00)

Daily predictions for brighter satellites

Satellite Brightness Start Highest point End
(mag) Time Altitude Azimuth Time Altitude Azimuth Time Altitude Azimuth
Cosmos 2082 Rocket 4.4 16:03:09 10° WNW 16:07:33 22° WSW 16:12:00 10° S
CZ-2C R/B 1.4 16:05:46 10° W 16:10:04 88° SSW 16:14:32 10° E
ATLAS CENTAUR R/B 4.2 16:04:13 10° SSW 16:10:19 18° S 16:13:53 10° SE
SKYMED 2 3.7 16:06:09 10° NNE 16:10:31 89° WNW 16:14:56 10° SSW
GPS 2-04 Rocket1 3.8 16:09:39 10° W 16:13:14 42° NNW 16:16:56 10° NE
X-37B 2.8 16:10:34 10° WSW 16:13:27 30° NW 16:16:19 10° NNE
Cosmos 1666 3.5 16:11:09 10° NNW 16:14:57 55° W 16:18:47 10° S
Cosmos 2184 Rocket 4.3 16:10:48 10° NNE 16:16:52 50° E 16:23:03 10° SSE
Cosmos 1933 Rocket 4.1 16:13:06 10° NNW 16:17:32 65° W 16:22:01 10° S
Iridium 4 Rocket 3.8 16:18:14 10° S 16:24:13 74° E 16:29:52 10° N
USA 215 3.8 16:21:12 10° E 16:27:06 37° SE 16:33:02 10° SSW
Cosmos 2181 Rocket 4.0 16:27:10 10° S 16:33:24 89° W 16:39:32 10° N
PSLV R/B 4.5 16:31:32 10° NE 16:35:14 35° ESE 16:38:59 10° S
CREW DRAGON DEMO-1 DEB 4.5 16:36:42 10° S 16:37:46 13° SSE 16:37:46 13° SSE
H-2A R/B 3.9 16:40:31 11° E 16:40:31 11° E 16:41:15 10° ENE
NOAA 6 4.1 16:37:44 10° SSE 16:42:53 60° ENE 16:47:58 10° N
SMAP 3.3 16:39:33 10° SSE 16:44:09 50° E 16:48:41 10° N
Cosmos 1624 Rocket 4.1 16:40:09 10° SSW 16:45:33 89° WNW 16:50:54 10° NNE
CZ-2C R/B 2.6 16:40:37 10° NNE 16:45:59 87° ESE 16:51:19 10° SSW
Cosmos 2333 Rocket 3.9 16:43:07 10° SSE 16:45:12 14° SE 16:45:12 14° SE
BREEZE-M DEB (TANK) 1.9 16:44:19 10° SW 16:46:25 79° SE 16:50:16 10° NE
ATLAS 2AS CENTAUR R/B 4.3 16:43:58 10° W 16:48:58 25° SW 16:54:05 10° S
Cosmos 2219 Rocket 4.2 16:47:25 10° SSE 16:47:27 10° SSE 16:47:27 10° SSE
Cosmos 1703 Rocket 4.2 16:47:03 10° SSW 16:51:29 61° W 16:55:53 10° N
PSLV R/B 3.7 16:48:22 10° SSE 16:52:18 70° E 16:56:16 10° N
ATLAS 3B R/B 2.8 16:45:36 10° SSW 16:52:22 53° SE 16:58:48 10° NE
SL-4 R/B 3.7 16:48:08 10° WSW 16:52:45 44° NW 16:57:18 10° NNE
FengYun 1-2 T 4.3 16:47:20 10° SSE 16:52:50 57° E 16:58:18 10° N
Cosmos 1536 3.5 16:50:17 10° NNW 16:54:16 58° W 16:58:20 10° S
Okean O Rocket 2.6 16:54:29 23° ESE 16:55:57 27° E 16:59:42 10° NNE
CZ-4B R/B 2.1 16:53:34 10° N 16:56:53 58° W 17:00:19 10° SSW
ISS -3.8 16:53:43 10° NW 16:57:07 81° NE 16:58:38 31° SE
Cosmos 1833 4.1 16:52:41 10° NNW 16:58:22 82° ENE 17:03:58 11° SSE
Meteor 1-13 Rocket 4.4 16:54:26 10° SSW 17:00:01 75° W 17:05:32 10° N
Cosmos 1238 Rocket 3.9 16:56:29 10° NNE 17:00:08 30° E 17:01:47 24° SE
Tianhe-1 2.8 16:58:28 10° SW 17:00:55 20° S 17:01:14 20° SSE
Cosmos 1743 2.6 16:58:04 10° N 17:01:55 90° SE 17:05:47 10° S
OAO 3 Rocket 3.1 17:01:15 10° W 17:06:05 77° S 17:08:21 31° E
Cosmos 1340 Rocket 4.2 17:02:41 10° NNW 17:06:22 38° WSW 17:10:09 10° S
Okean 3 3.5 17:03:31 10° S 17:07:48 79° W 17:11:59 10° N
COSMOS 2455 4.1 17:04:39 10° NNE 17:08:54 21° ENE 17:08:54 21° ENE
Cosmos 1378 4.3 17:05:37 10° SSW 17:09:13 45° W 17:12:49 10° NNW
Cosmos 1452 Rocket 3.7 17:05:03 10° S 17:10:12 47° ESE 17:15:17 10° NE
NOAA 12 4.4 17:06:47 10° S 17:12:04 68° WSW 17:17:15 10° NNW
deb Chang Zheng 4 4.2 17:07:49 10° S 17:12:05 54° WSW 17:16:15 10° NNW
Cosmos 1066 Rocket 4.4 17:07:02 10° SSW 17:12:46 73° W 17:18:16 10° N
CZ-2C R/B 3.1 17:07:44 10° SSE 17:13:07 70° ENE 17:18:43 10° N
Meteor 1-23 Rocket 4.2 17:07:22 10° S 17:13:17 76° E 17:19:05 10° NNE
Cosmos 2360 Rocket 2.3 17:08:19 10° S 17:13:53 50° ESE 17:19:22 10° NE
H-2A R/B 3.1 17:14:25 36° E 17:14:42 37° E 17:18:49 10° NNE
Cosmos 1048 Rocket 4.0 17:10:05 10° NNW 17:15:14 81° WSW 17:19:54 13° SSE
SL-16 R/B 2.7 17:10:46 10° SSW 17:16:26 63° WNW 17:22:01 10° N
Cosmos 2322 Rocket 2.2 17:11:29 10° SSW 17:17:12 84° WNW 17:22:53 10° NNE
MOS 1-B Rocket 4.5 17:12:01 10° NNE 17:19:00 74° ESE 17:27:18 10° S
Cosmos 292 Rocket 3.7 17:17:57 10° SSW 17:22:54 88° WNW 17:27:45 10° NNE
Iridium 45 4.4 17:19:48 10° N 17:23:21 87° E 17:24:48 36° S
Cosmos 2218 Rocket 4.4 17:19:10 10° NNE 17:24:48 36° E 17:25:11 36° E
PAYLOAD B 4.3 17:20:01 10° S 17:25:36 81° WSW 17:31:07 10° NNW
Delta 2 Rocket 4.2 17:24:39 10° WSW 17:30:10 74° NNW 17:32:33 36° ENE
Cosmos 1939 Rocket 3.3 17:27:37 18° S 17:30:28 59° WSW 17:34:21 10° NNW
Cosmos 1975 3.2 17:29:17 10° N 17:32:28 48° NE 17:32:28 48° NE
Cosmos 494 Rocket 4.4 17:36:51 10° NNW 17:41:58 60° WSW 17:45:06 24° S
Cosmos 2237 4.5 17:38:13 10° SSW 17:43:57 68° WNW 17:49:37 10° N
Cosmos 1733 Rocket 3.8 17:40:38 10° NNW 17:44:59 52° W 17:47:49 21° SSW
BREEZE-M DEB (TANK) 3.1 17:44:34 10° WNW 17:47:55 42° W 17:47:55 42° W
CZ-2C R/B 1.7 17:45:29 10° W 17:49:20 65° WSW 17:49:20 65° WSW
Cosmos 2366 rocket 3.9 17:44:44 10° N 17:50:55 60° E 17:51:13 60° E
CZ-4B R/B 3.9 17:59:51 21° S 18:03:27 52° WSW 18:08:51 10° NNW
USA 215 3.7 18:04:30 16° NNE 18:09:48 59° NW 18:16:20 10° SW
SL-8 Rocket 4.1 18:05:06 10° NNW 18:11:16 73° W 18:13:25 43° S
H-2A R/B 2.9 18:21:08 43° NW 18:21:08 43° NW 18:24:41 10° NNW
Cosmos 2333 Rocket 3.9 18:25:07 10° SSW 18:27:19 24° SSW 18:27:19 24° SSW
Okean O Rocket 3.8 18:31:56 22° WSW 18:32:06 22° WSW 18:35:30 10° WNW
Cosmos 2219 Rocket 4.4 18:28:23 10° SSW 18:29:13 15° SSW 18:29:13 15° SSW
COSMOS 2455 4.3 18:48:37 10° NW 18:52:07 33° WNW 18:52:07 33° WNW
